Glen Ullin Rgnl, Glen Ullin,, ND

3:09 AM MDT on August 21, 2017 (GMT -0600)
Glen Ullin Rgnl, Glen Ullin,

Weather History for KD57 - April, 2014

Change the Weather History Date:

Tuesday, April 15, 2014

  Actual Average (KDIK) Record (KDIK)
Temperature  
Mean Temperature 34 °F -  
Max Temperature 50 °F 54 °F 86 °F (1913)
Min Temperature 17 °F 29 °F 5 °F (1986)
Degree Days  
Heating Degree Days 32    
Moisture  
Dew Point 15 °F    
Average Humidity 52    
Maximum Humidity 73    
Minimum Humidity 30    
Precipitation  
Precipitation 0.00 in - - ()
Sea Level Pressure  
Sea Level Pressure 29.79 in    
Wind  
Wind Speed 12 mph (SE)    
Max Wind Speed 26 mph    
Max Gust Speed 33 mph    
Visibility 10 miles    
Events      
Averages and records for this station are not official NWS values.
T = Trace of Precipitation, MM = Missing Value Source: NWS Daily Summary

Daily Weather History Graph

Daily Weather History Graph

Search for Another Location

Airport or City:

Trip Planner

Search our weather history database for the weather conditions in past years. The results will help you decide how hot, cold, wet, or windy it might be!

Date:

Astronomy

Apr. 15, 2014 Rise Set
Actual Time 5:59 AM MDT 7:35 PM MDT
Civil Twilight 5:28 AM MDT 8:07 PM MDT
Nautical Twilight 4:49 AM MDT 8:46 PM MDT
Astronomical Twilight 4:07 AM MDT 9:28 PM MDT
Moon 8:21 PM MDT (4/15) 6:08 AM MDT (4/15)
Length of Visible Light 14h 39m
Length of Day
13h 36m
Full, 100% of the Moon is Illuminated
Apr 15
Full
Apr 22
Last Quarter
Apr 29
New
May 6
First Quarter
May 14
Full

Hourly Weather History & Observations

Time (MDT) Temp. Windchill Dew Point Humidity Pressure Visibility Wind Dir Wind Speed Gust Speed Precip Events Conditions
12:15 AM 17.6 °F - 10.4 °F 73% 30.09 in 10.0 mi Calm Calm - N/A   Clear
12:35 AM 19.4 °F - 10.4 °F 68% 30.07 in 10.0 mi Calm Calm - N/A   Mostly Cloudy
12:55 AM 21.2 °F 10.9 °F 10.4 °F 63% 30.06 in 10.0 mi SE 9.2 mph - N/A   Overcast
1:15 AM 21.2 °F 12.6 °F 12.2 °F 68% 30.06 in 10.0 mi South 6.9 mph - N/A   Overcast
1:35 AM 19.4 °F 9.5 °F 10.4 °F 68% 30.05 in 10.0 mi SSE 8.1 mph - N/A   Overcast
1:55 AM 19.4 °F 8.6 °F 10.4 °F 68% 30.04 in 10.0 mi SSE 9.2 mph - N/A   Scattered Clouds
2:15 AM 19.4 °F 7.9 °F 8.6 °F 63% 30.03 in 10.0 mi SSE 10.4 mph - N/A   Partly Cloudy
2:35 AM 19.4 °F 10.4 °F 10.4 °F 68% 30.03 in 10.0 mi SSE 6.9 mph - N/A   Partly Cloudy
2:55 AM 19.4 °F 10.4 °F 10.4 °F 68% 30.02 in 10.0 mi SE 6.9 mph - N/A   Partly Cloudy
3:15 AM 19.4 °F 9.5 °F 10.4 °F 68% 30.01 in 10.0 mi SE 8.1 mph - N/A   Partly Cloudy
3:35 AM 17.6 °F 8.2 °F 10.4 °F 73% 30.00 in 10.0 mi SE 6.9 mph - N/A   Partly Cloudy
3:55 AM 17.6 °F 9.3 °F 10.4 °F 73% 30.00 in 10.0 mi ESE 5.8 mph - N/A   Partly Cloudy
4:15 AM 17.6 °F 8.2 °F 10.4 °F 73% 29.98 in 10.0 mi ESE 6.9 mph - N/A   Clear
4:35 AM 17.6 °F 8.2 °F 10.4 °F 73% 29.98 in 10.0 mi ESE 6.9 mph - N/A   Mostly Cloudy
4:55 AM 17.6 °F 7.3 °F 10.4 °F 73% 29.97 in 10.0 mi SE 8.1 mph - N/A   Overcast
5:15 AM 19.4 °F 10.4 °F 10.4 °F 68% 29.96 in 10.0 mi ESE 6.9 mph - N/A   Overcast
5:35 AM 19.4 °F 9.5 °F 10.4 °F 68% 29.95 in 10.0 mi ESE 8.1 mph - N/A   Overcast
5:55 AM 19.4 °F 8.6 °F 10.4 °F 68% 29.93 in 10.0 mi ESE 9.2 mph - N/A   Overcast
6:15 AM 21.2 °F 10.1 °F 10.4 °F 63% 29.92 in 10.0 mi ESE 10.4 mph - N/A   Overcast
6:35 AM 21.2 °F 9.5 °F 12.2 °F 68% 29.92 in 10.0 mi ESE 11.5 mph - N/A   Overcast
6:55 AM 21.2 °F 9.5 °F 12.2 °F 68% 29.91 in 10.0 mi SE 11.5 mph - N/A   Overcast
7:15 AM 23.0 °F 10.6 °F 12.2 °F 63% 29.90 in 10.0 mi SE 13.8 mph - N/A   Mostly Cloudy
7:35 AM 23.0 °F 10.1 °F 12.2 °F 63% 29.89 in 10.0 mi SE 15.0 mph - N/A   Partly Cloudy
7:55 AM 23.0 °F 10.1 °F 12.2 °F 63% 29.88 in 10.0 mi SE 15.0 mph - N/A   Partly Cloudy
8:15 AM 24.8 °F 11.1 °F 12.2 °F 59% 29.86 in 10.0 mi SE 18.4 mph - N/A   Clear
8:35 AM 26.6 °F 13.1 °F 12.2 °F 55% 29.85 in 10.0 mi SSE 19.6 mph - N/A   Clear
8:55 AM 26.6 °F 13.1 °F 12.2 °F 55% 29.84 in 10.0 mi SE 19.6 mph - N/A   Clear
9:15 AM 28.4 °F 15.8 °F 12.2 °F 51% 29.83 in 10.0 mi SSE 18.4 mph 26.5 mph N/A   Clear
9:35 AM 30.2 °F 16.5 °F 14.0 °F 51% 29.81 in 10.0 mi SE 24.2 mph - N/A   Clear
9:55 AM 32.0 °F 19.8 °F 14.0 °F 48% 29.81 in 10.0 mi SE 20.7 mph 28.8 mph N/A   Clear
10:15 AM 33.8 °F 22.2 °F 14.0 °F 44% 29.80 in 10.0 mi SSE 20.7 mph 31.1 mph N/A   Partly Cloudy
10:55 AM 35.6 °F 24.8 °F 15.8 °F 44% 29.78 in 10.0 mi SE 19.6 mph 26.5 mph N/A   Clear
11:15 AM 37.4 °F 26.4 °F 15.8 °F 41% 29.77 in 10.0 mi SE 23.0 mph 31.1 mph N/A   Scattered Clouds
11:55 AM 39.2 °F 29.0 °F 15.8 °F 39% 29.74 in 10.0 mi SE 21.9 mph 28.8 mph N/A   Mostly Cloudy
12:15 PM 39.2 °F 28.5 °F 15.8 °F 39% 29.73 in 10.0 mi SE 24.2 mph 31.1 mph N/A   Scattered Clouds
12:35 PM 41.0 °F 30.5 °F 17.6 °F 39% 29.71 in 10.0 mi SSE 26.5 mph 33.4 mph N/A   Clear
12:55 PM 42.8 °F 34.0 °F 17.6 °F 36% 29.71 in 10.0 mi SE 20.7 mph 29.9 mph N/A   Clear
1:15 PM 42.8 °F 34.8 °F 17.6 °F 36% 29.69 in 10.0 mi SSE 17.3 mph 28.8 mph N/A   Partly Cloudy
1:35 PM 42.8 °F 33.8 °F 17.6 °F 36% 29.69 in 10.0 mi SE 21.9 mph - N/A   Clear
1:55 PM 44.6 °F 36.6 °F 17.6 °F 34% 29.68 in 10.0 mi SE 19.6 mph 31.1 mph N/A   Clear
2:15 PM 44.6 °F 36.6 °F 17.6 °F 34% 29.67 in 10.0 mi SE 19.6 mph 31.1 mph N/A   Clear
2:35 PM 46.4 °F 38.5 °F 19.4 °F 34% 29.66 in 10.0 mi SE 21.9 mph 29.9 mph N/A   Clear
2:55 PM 48.2 °F - 19.4 °F 32% 29.66 in 10.0 mi SE 18.4 mph - N/A   Clear
3:15 PM 48.2 °F - 19.4 °F 32% 29.64 in 9.0 mi SE 20.7 mph 27.6 mph N/A   Clear
3:35 PM 48.2 °F - 19.4 °F 32% 29.63 in 10.0 mi SE 19.6 mph 26.5 mph N/A   Clear
3:55 PM 50.0 °F - 19.4 °F 30% 29.63 in 10.0 mi SE 21.9 mph 27.6 mph N/A   Clear
4:15 PM 48.2 °F - 19.4 °F 32% 29.62 in 10.0 mi SE 20.7 mph - N/A   Clear
4:35 PM 48.2 °F - 19.4 °F 32% 29.62 in 10.0 mi ESE 18.4 mph - N/A   Clear
4:55 PM 48.2 °F - 21.2 °F 34% 29.61 in 10.0 mi ESE 18.4 mph - N/A   Clear
5:15 PM 48.2 °F - 19.4 °F 32% 29.61 in 10.0 mi ESE 23.0 mph 28.8 mph N/A   Clear
5:35 PM 46.4 °F 38.7 °F 21.2 °F 37% 29.61 in 10.0 mi ESE 20.7 mph - N/A   Clear
5:55 PM 46.4 °F 39.5 °F 21.2 °F 37% 29.61 in 10.0 mi East 17.3 mph 25.3 mph N/A   Clear
6:15 PM 44.6 °F 36.6 °F 21.2 °F 39% 29.62 in 10.0 mi ESE 19.6 mph 26.5 mph N/A   Clear
6:35 PM 42.8 °F 34.5 °F 21.2 °F 42% 29.62 in 10.0 mi East 18.4 mph 27.6 mph N/A   Clear
6:55 PM 41.0 °F 31.9 °F 21.2 °F 45% 29.63 in 10.0 mi East 19.6 mph 27.6 mph N/A   Scattered Clouds
7:15 PM 41.0 °F 31.9 °F 21.2 °F 45% 29.64 in 10.0 mi ESE 19.6 mph 26.5 mph N/A   Scattered Clouds
7:35 PM 41.0 °F 32.5 °F 19.4 °F 42% 29.64 in 10.0 mi East 17.3 mph - N/A   Overcast
7:55 PM 39.2 °F 30.8 °F 19.4 °F 45% 29.64 in 10.0 mi ESE 15.0 mph 25.3 mph N/A   Overcast
8:15 PM 37.4 °F 28.9 °F 19.4 °F 48% 29.66 in 10.0 mi East 13.8 mph 23.0 mph N/A   Overcast
8:35 PM 37.4 °F 27.5 °F 19.4 °F 48% 29.66 in 10.0 mi East 18.4 mph - N/A   Overcast
8:55 PM 35.6 °F 24.2 °F 19.4 °F 52% 29.67 in 10.0 mi East 21.9 mph - N/A   Partly Cloudy
9:15 PM 32.0 °F 22.1 °F 17.6 °F 55% 29.68 in 10.0 mi East 13.8 mph 20.7 mph N/A   Clear
9:35 PM 32.0 °F 21.2 °F 17.6 °F 55% 29.68 in 10.0 mi East 16.1 mph 24.2 mph N/A   Clear
9:55 PM 30.2 °F 18.1 °F 17.6 °F 60% 29.68 in 10.0 mi East 18.4 mph 25.3 mph N/A   Clear
10:15 PM 30.2 °F 18.5 °F 17.6 °F 60% 29.69 in 10.0 mi East 17.3 mph 23.0 mph N/A   Clear
10:35 PM 28.4 °F 15.8 °F 17.6 °F 64% 29.69 in 10.0 mi East 18.4 mph - N/A   Clear
10:55 PM 28.4 °F 16.6 °F 15.8 °F 59% 29.69 in 10.0 mi East 16.1 mph - N/A   Clear
11:15 PM 28.4 °F 15.4 °F 15.8 °F 59% 29.70 in 10.0 mi East 19.6 mph 26.5 mph N/A   Clear
11:35 PM 28.4 °F 17.5 °F 15.8 °F 59% 29.70 in 10.0 mi East 13.8 mph 27.6 mph N/A   Clear
11:55 PM 28.4 °F 17.0 °F 15.8 °F 59% 29.71 in 10.0 mi East 15.0 mph 21.9 mph N/A   Scattered Clouds